Regional Weather Roundup
Issued by NWS Newport/Morehead, NC

Current Version | Previous Version | Graphics & Text | Print | Product List | Glossary On
Versions: 1 2 3 4 5 6 7 8 9 10 11 12 13 14 15 16 17 18 19 20 21 22 23 24 25 26 27 28 29 30 31 32 33 34 35 36 37 38 39 40 41 42 43 44 45 46 47 48 49 50
000 ASUS42 KMHX 231510 RWRMHX WEATHER ROUNDUP FOR EASTERN NORTH CAROLINA NATIONAL WEATHER SERVICE NEWPORT/MOREHEAD CITY NC 1100 AM EDT SAT AUG 23 2014 NOTE: "FAIR" INDICATES FEW OR NO CLOUDS BELOW 12,000 FEET WITH NO SIGNIFICANT WEATHER AND/OR OBSTRUCTIONS TO VISIBILITY NCZ015>017-031-032-045>047-102-103-231600- NORTH COAST CITY SKY/WX TMP DP RH WIND PRES REMARKS EDENTON MOSUNNY 80 72 77 NE5 29.97F ELIZABETH CITY PTSUNNY 80 71 74 NE9 29.98R KITTY HAWK CLOUDY 81 72 73 NE6 29.96F MANTEO MOSUNNY 81 72 74 NE12 29.97F $$ NCZ045>047-081-094-103-104-231600- CENTRAL COAST CITY SKY/WX TMP DP RH WIND PRES REMARKS FRISCO PTSUNNY 81 71 71 VRB3 29.96S SWANQUARTER N/A 81 N/A N/A NE2G8 29.94S $$ NCZ095-097-098-100-101-231600- SOUTHERN COAST CITY SKY/WX TMP DP RH WIND PRES REMARKS BEAUFORT CLOUDY 81 74 79 NE6 29.96S CEDAR ISLAND N/A 82 N/A N/A NE7 30.00S JACKSONVILLE CLOUDY 83 75 77 E8 29.95R NEWPORT NOT AVBL PINEY ISLAND PTSUNNY 83 76 79 NE6 29.96R WILMINGTON PTSUNNY 83 77 82 VRB6 29.94R $$ NCZ011>013-027>030-043-044-078>080-089-090>093-098-231600- COASTAL PLAIN CITY SKY/WX TMP DP RH WIND PRES REMARKS AHOSKIE MOSUNNY 78 71 80 E3 29.99R CLINTON PTSUNNY 80 75 84 CALM 29.96S ELIZABETHTOWN PTSUNNY 82 72 70 E3 29.95S GOLDSBORO MOSUNNY 82 78 87 E9 29.94F GREENVILLE PTSUNNY 79 73 83 E6 29.99S HAVELOCK PTSUNNY 81 72 74 E6 29.97R KENANSVILLE PTSUNNY 81 75 81 E6 29.97S KINSTON PTSUNNY 82 75 78 E6 29.97S NEW BERN PTSUNNY 82 73 74 E7 29.97S RICHLANDS CLOUDY 81 73 78 E6 29.96R ROANOKE RAPIDS NOT AVBL ROCKY MOUNT LGT RAIN 77 74 90 E3 29.98S FOG WASHINGTON PTSUNNY 78 73 83 E6 29.98S WHITEVILLE MOSUNNY 83 76 79 NE5 29.93S $$ AMZ130-135-150-152-154-156-158-170-250-252-270-ANZ085-086-088-633-658-670-231600- MARINE OBSERVATIONS STATION/POSITION TIME TEMP WIND PRES WAVE SWELL AIR SEA DIR/SP/G HT/PER HT/PER (UTC) (F) (DEG/KT/KT) (MB) (FT/S) (FT/S) CHESAPEAKE LIGHT 1400 75 60/ 15/ 16 1016.0 BUOY 44014 1500 77 78 60/ 10/ 12 1014.9 3/ 7 2/ 7 DUCK 1500 78 80 60/ 11/ 12 1014.5 2E DUCK 1500 N/A 2/ 8 OREGON INLET 1500 80 81 40/ 10/ 12 1014.8 BUOY 44095 1500 80 N/A 3/ 8 20E OREGON INLET NOT AVBL HATTERAS CG 1500 80 81 40/ 6/ 9 1015.1 DIAMOND BUOY 1500 78 350/ 8/ 10 1014.2 2/ 8 2/ 8 CAPE LOOKOUT 1400 78 80/ 5/ 6 1014.2 BEAUFORT LAB 1500 80 83 60/ 3/ 5 1014.2 30 SE NEW RIVER 1500 81 83 90/ 12/ 12 1013.5 1/ 8 2/ 8 5 SE WRIGHTSVILL 1500 80 83 110/ 10/ 12 N/A BUOY 41002 1443 82 82 270/ 10/ 12 1014.9 2/ 5 2/ 7 BUOY 41004 1500 85 85 270/ 8/ 10 1012.7 2/ 4 2/ 4 $$

USA.gov is the U.S. government's official web portal to all federal, state and local government web resources and services.